Tracking 28790 objects as of 19-Apr-2024
HD Live streaming from Space Station
objects crossing your sky now

DMSP 5D-2 F11 DEB

Track DMSP 5D-2 F11 DEB now!
10-day predictions


NORAD ID: 28309
Int'l Code: 1991-082W
Perigee: 814.2 km
Apogee: 836.0 km
Inclination: 98.8 °
Period: 101.3 minutes
Semi major axis: 7196 km
RCS: 0.0137 m2 (small)
Launch date: November 28, 1991
Source: United States (US)
Launch site: AIR FORCE WESTERN TEST RANGE (AFWTR)

Note: This is SATELLITE DEBRIS
Your satellite tracking list
Your tracking list is empty




NASA's NSSDC Master Catalog

Two Line Element Set (TLE):
1 28309U 91082W   24109.76809341  .00000451  00000-0  22298-3 0  9992
2 28309  98.7589 128.0136 0015169  15.9995  42.2536 14.22184068 37346
Source of the keplerian elements: AFSPC